NKS973 KMCO-TJSJ

Flight info

Callsign NKS973
Flight time N/A
Altitude 37000
Route DDANY3 JIPOD DCT VENDS Y185 RENAH Y355 PLING RTE7 SAALR
Aircraft A21N/M-SDE2E3FGHIRWXY/LB1

Departure

Time 2026-04-25 19:59
Airport Orlando International Airport (KMCO)

Arrival

Time N/A
Airport Luis Munoz Marin International Airport (TJSJ)
Time Latitude Longitude Altitude Speed Heading
2026-04-25 19:36 28.43587 -81.31567 88 ft 0 kts 114°
2026-04-25 19:50 28.43600 -81.31599 88 ft 3 kts 114°
2026-04-25 19:50 28.43610 -81.31624 89 ft 0 kts 114°
2026-04-25 19:54 28.43610 -81.31620 88 ft 0 kts 78°
2026-04-25 19:54 28.43614 -81.31617 88 ft 0 kts 16°
2026-04-25 19:54 28.43620 -81.31619 89 ft 0 kts 345°
2026-04-25 19:54 28.43644 -81.31624 89 ft 9 kts 354°
2026-04-25 19:55 28.43757 -81.31635 91 ft 15 kts 332°
2026-04-25 19:55 28.43836 -81.31729 91 ft 17 kts 288°
2026-04-25 19:55 28.43880 -81.31845 91 ft 16 kts 331°
2026-04-25 19:55 28.44010 -81.31886 91 ft 24 kts 348°
2026-04-25 19:56 28.44179 -81.31902 91 ft 23 kts 360°
2026-04-25 19:56 28.44341 -81.31902 92 ft 22 kts
2026-04-25 19:56 28.44501 -81.31904 91 ft 28 kts 359°
2026-04-25 19:56 28.44704 -81.31906 91 ft 28 kts 359°
2026-04-25 19:57 28.44821 -81.31952 91 ft 13 kts 282°
2026-04-25 19:57 28.44823 -81.32056 91 ft 13 kts 268°
2026-04-25 19:57 28.44823 -81.32088 91 ft 0 kts 268°
2026-04-25 19:58 28.44822 -81.32091 91 ft 2 kts 268°
2026-04-25 19:58 28.44806 -81.32207 91 ft 18 kts 235°
2026-04-25 19:58 28.44662 -81.32230 91 ft 42 kts 177°
2026-04-25 19:58 28.44065 -81.32220 92 ft 125 kts 180°
2026-04-25 19:59 28.42954 -81.32212 194 ft 181 kts 179°
2026-04-25 19:59 28.41758 -81.32201 1132 ft 173 kts 177°
2026-04-25 19:59 28.40591 -81.32157 2105 ft 170 kts 175°
2026-04-25 19:59 28.39430 -81.32021 2733 ft 172 kts 174°
2026-04-25 20:00 28.38251 -81.31664 3103 ft 185 kts 149°
2026-04-25 20:00 28.37605 -81.30960 3291 ft 199 kts 129°
2026-04-25 20:00 28.36475 -81.29140 3689 ft 226 kts 128°
2026-04-25 20:00 28.35471 -81.27680 4083 ft 243 kts 130°
2026-04-25 20:01 28.33078 -81.24618 4994 ft 271 kts 134°
2026-04-25 20:01 28.31786 -81.23055 5706 ft 275 kts 134°
2026-04-25 20:01 28.30685 -81.21294 6398 ft 280 kts 113°
2026-04-25 20:02 28.30225 -81.19179 7204 ft 279 kts 101°
2026-04-25 20:02 28.29859 -81.16975 7785 ft 290 kts 101°
2026-04-25 20:02 28.29472 -81.14696 8469 ft 297 kts 101°
2026-04-25 20:02 28.29078 -81.12398 9220 ft 300 kts 101°
2026-04-25 20:03 28.28679 -81.10089 9922 ft 304 kts 101°
2026-04-25 20:03 28.28266 -81.07718 10587 ft 311 kts 100°
2026-04-25 20:03 28.27837 -81.05254 10985 ft 327 kts 100°
2026-04-25 20:03 28.27391 -81.02690 11507 ft 336 kts 100°
2026-04-25 20:04 28.26935 -81.00095 12147 ft 340 kts 99°
2026-04-25 20:04 28.26476 -80.97475 12800 ft 344 kts 99°
2026-04-25 20:04 28.26005 -80.94788 13513 ft 345 kts 99°
2026-04-25 20:04 28.25548 -80.92180 14292 ft 342 kts 99°
2026-04-25 20:05 28.25064 -80.89541 15097 ft 339 kts 102°
2026-04-25 20:05 28.24431 -80.86997 15841 ft 336 kts 105°
2026-04-25 20:05 28.23727 -80.84442 16247 ft 346 kts 105°
2026-04-25 20:05 28.22993 -80.81792 16508 ft 360 kts 105°
2026-04-25 20:06 28.22245 -80.79079 16907 ft 368 kts 105°
2026-04-25 20:06 28.21490 -80.76308 17457 ft 371 kts 105°
2026-04-25 20:06 28.20734 -80.73518 18020 ft 374 kts 105°
2026-04-25 20:06 28.19964 -80.70666 18595 ft 376 kts 105°
2026-04-25 20:07 28.19201 -80.67834 19155 ft 378 kts 105°
2026-04-25 20:07 28.18433 -80.64987 19692 ft 380 kts 105°
2026-04-25 20:07 28.17668 -80.62146 20200 ft 383 kts 105°
2026-04-25 20:07 28.16884 -80.59240 20710 ft 385 kts 105°
2026-04-25 20:08 28.16105 -80.56351 21228 ft 387 kts 105°
2026-04-25 20:08 28.15321 -80.53455 21715 ft 389 kts 105°
2026-04-25 20:08 28.14538 -80.50561 22441 ft 383 kts 105°
2026-04-25 20:08 28.13767 -80.47714 23195 ft 377 kts 105°
2026-04-25 20:09 28.13000 -80.44894 23961 ft 370 kts 105°
2026-04-25 20:09 28.12249 -80.42142 24457 ft 371 kts 104°
2026-04-25 20:09 28.11476 -80.39289 24629 ft 381 kts 104°
2026-04-25 20:09 28.10700 -80.36422 24806 ft 391 kts 105°
2026-04-25 20:10 28.09890 -80.33432 24980 ft 400 kts 105°
2026-04-25 20:10 28.08981 -80.30418 25201 ft 408 kts 108°
2026-04-25 20:10 28.07993 -80.27424 25543 ft 411 kts 109°
2026-04-25 20:10 28.06971 -80.24371 25913 ft 414 kts 108°
2026-04-25 20:11 28.05952 -80.21333 26262 ft 417 kts 108°
2026-04-25 20:11 28.04926 -80.18276 26624 ft 419 kts 108°
2026-04-25 20:11 28.03883 -80.15167 26977 ft 421 kts 108°
2026-04-25 20:11 28.02845 -80.12079 27329 ft 423 kts 108°
2026-04-25 20:12 28.01798 -80.08965 27647 ft 426 kts 108°
2026-04-25 20:12 28.00748 -80.05843 27975 ft 429 kts 108°
2026-04-25 20:12 27.99680 -80.02669 28285 ft 432 kts 108°
2026-04-25 20:12 27.98971 -80.00558 28502 ft 433 kts 108°
2026-04-25 20:13 27.97536 -79.96300 28946 ft 436 kts 108°
2026-04-25 20:13 27.96458 -79.93111 29249 ft 439 kts 107°
2026-04-25 20:13 27.95372 -79.89894 29625 ft 439 kts 107°
2026-04-25 20:13 27.94293 -79.86706 30473 ft 426 kts 107°
2026-04-25 20:14 27.93269 -79.83689 31654 ft 404 kts 108°
2026-04-25 20:14 27.92284 -79.80781 32263 ft 399 kts 107°
2026-04-25 20:14 27.91289 -79.77839 32380 ft 406 kts 107°
2026-04-25 20:14 27.90282 -79.74858 32630 ft 409 kts 107°
2026-04-25 20:15 27.89256 -79.71843 32885 ft 412 kts 108°
2026-04-25 20:15 27.88207 -79.68802 33144 ft 414 kts 108°
2026-04-25 20:15 27.87165 -79.65776 33394 ft 417 kts 108°
2026-04-25 20:15 27.86115 -79.62711 33541 ft 422 kts 108°
2026-04-25 20:16 27.85055 -79.59610 33692 ft 428 kts 108°
2026-04-25 20:16 27.83981 -79.56467 33840 ft 433 kts 108°
2026-04-25 20:16 27.82901 -79.53303 33982 ft 438 kts 108°
2026-04-25 20:16 27.81793 -79.50060 34123 ft 443 kts 108°
2026-04-25 20:17 27.80683 -79.46815 34261 ft 448 kts 108°
2026-04-25 20:17 27.79560 -79.43529 34393 ft 452 kts 108°
2026-04-25 20:17 27.78427 -79.40224 34522 ft 457 kts 108°
2026-04-25 20:17 27.77264 -79.36832 34661 ft 461 kts 108°
2026-04-25 20:18 27.76112 -79.33474 34900 ft 463 kts 108°
2026-04-25 20:18 27.74961 -79.30112 35219 ft 462 kts 109°
2026-04-25 20:18 27.73794 -79.26702 35537 ft 462 kts 109°
2026-04-25 20:18 27.72636 -79.23328 35803 ft 462 kts 109°
2026-04-25 20:19 27.71475 -79.19953 36042 ft 463 kts 109°
2026-04-25 20:19 27.70319 -79.16596 36264 ft 463 kts 109°
2026-04-25 20:19 27.69147 -79.13197 36454 ft 465 kts 109°
2026-04-25 20:19 27.67986 -79.09834 36726 ft 463 kts 109°
2026-04-25 20:20 27.66822 -79.06464 36882 ft 465 kts 109°
2026-04-25 20:20 27.65635 -79.03029 36914 ft 469 kts 109°
2026-04-25 20:20 27.63255 -78.96153 36930 ft 477 kts 109°
2026-04-25 20:21 27.60814 -78.89121 36937 ft 484 kts 109°
2026-04-25 20:21 27.58365 -78.82085 36938 ft 486 kts 109°
2026-04-25 20:22 27.56295 -78.76142 36938 ft 487 kts 109°
2026-04-25 20:22 27.53171 -78.68045 36922 ft 489 kts 120°
2026-04-25 20:23 27.51073 -78.64984 36928 ft 492 kts 133°
2026-04-25 20:23 27.48489 -78.62478 36931 ft 493 kts 144°
2026-04-25 20:23 27.45524 -78.60607 36930 ft 492 kts 157°
2026-04-25 20:23 27.42241 -78.59430 36929 ft 490 kts 169°
2026-04-25 20:24 27.38881 -78.59030 36928 ft 488 kts 181°
2026-04-25 20:24 27.35536 -78.59401 36921 ft 483 kts 195°
2026-04-25 20:24 27.32424 -78.60782 36907 ft 473 kts 211°
2026-04-25 20:24 27.29584 -78.62534 36830 ft 464 kts 211°
2026-04-25 20:25 27.26845 -78.64355 36189 ft 460 kts 217°
2026-04-25 20:25 27.24313 -78.66582 35135 ft 460 kts 226°
2026-04-25 20:25 27.22142 -78.69151 33890 ft 461 kts 235°
2026-04-25 20:25 27.20319 -78.72105 32689 ft 463 kts 243°